Location: Norton
(51.3000°N, 0.8167°E)
Time: 12:56:43
(UTC+00:00)

Cosmos 2278 Rocket - Pass Details

Date: 03 March 2021
Orbit: 841 x 845 km, 71.0° (Epoch: 16 April)

Event Time Altitude Azimuth Distance (km) Brightness Sun altitude
Rises 22:06:39 0° 320° (NW) 3,415 6.3 -38.6°
Reaches altitude 10° 22:09:47 10° 303° (WNW) 2,474 5.3 -38.9°
Enters shadow 22:12:24 18° 277° (W) 1,976 4.4 -39.1°
